Regional Weather Roundup
Issued by NWS Grand Forks, ND

Home | Current Version | Previous Version | Graphics & Text | Print | Product List | Glossary On
Versions: 1 2 3 4 5 6 7 8 9 10 11 12 13 14 15 16 17 18 19 20 21 22 23 24 25 26 27 28 29 30 31 32 33 34 35 36 37 38 39 40 41 42 43 44 45 46 47 48 49 50
000
ASUS43 KFGF 050731
RWRFGF
PRAIRIE TO PINES  WEATHER ROUNDUP
NATIONAL WEATHER SERVICE EASTERN NORTH DAKOTA/GRAND FORKS ND
200 AM CDT TUE MAY 05 2015

 **SATELLITE DATA USED TO AUGMENT SKY COVER AT AUTOMATED STATIONS**
 *****  WEATHER ACROSS EASTERN NORTH DAKOTA  *****

CITY           SKY/WX    TMP DP  RH WIND       PRES   REMARKS
GRAND FORKS    CLEAR     45  26  47 SE6       30.17S
GRAND FRKS AFB CLEAR     45  25  45 S7        30.17S
GRAND FRKS NWS   N/A     48 N/A N/A SE7         N/A
DEVILS LAKE    CLEAR     48  32  53 S6        30.14S
FARGO          CLEAR     50  27  40 SE6       30.19R
WAHPETON ARPT  SUNNY     48  28  46 E7        30.19S
$$

 ***** WEATHER ACROSS CENTRAL AND WESTERN NORTH DAKOTA  *****

CITY           SKY/WX    TMP DP  RH WIND       PRES   REMARKS
BISMARCK       CLOUDY    53  31  42 SE3       30.12S
MINOT          CLOUDY    54  32  43 SE7       30.08F
JAMESTOWN      CLEAR     47  26  44 S7        30.16S
MINOT AFB      MOCLDY    53  34  49 S7        30.07F
GARRISON         N/A     51  33  50 SE3       30.09F
WILLISTON      CLEAR     53  30  41 S10G20    30.00F
DICKINSON      CLEAR     43  29  57 S10       30.04S
HETTINGER      CLOUDY    50  27  40 SE10      30.07F
$$

 *****  OTHER AIRPORT OBSERVATIONS IN OUR AREA  *****

CITY           SKY/WX    TMP DP  RH WIND       PRES   REMARKS
WALHALLA       PTSUNNY   52  25  35 SW12      30.14F
GRAFTON AIRPOR FAIR      41  27  56 S9        30.17S
VALLEY CITY AR FAIR      48  25  40 S6        30.18S
CANDO          FAIR      45  32  61 S9        30.14S
CAVALIER APRT  FAIR      46  28  49 S8        30.15F
GWINNER        SUNNY     46  32  57 SE3       30.19S
SHEYENNE NWR     N/A     42  28  56 E5        29.95S
ROLLA          NOT AVBL
 ***** THE ABOVE OBSERVATIONS ARE NON NWS ARE NOT QUALITY
       CONTROLLED AND MAY MIS-REPORT RAIN FOR SNOW...
$$

  *****  WEATHER ACROSS NORTHERN MINNESOTA  *****

CITY           SKY/WX    TMP DP  RH WIND       PRES   REMARKS
FLAG ISLAND    CLEAR     48  37  66 SE3       30.18S
WARROAD        CLEAR     43  32  65 S5        30.20S
ROSEAU         CLEAR     43  28  56 S7        30.19S
HALLOCK        CLEAR     41  18  38 S9        30.16S
THF RVR FALLS  CLEAR     50  25  37 SE9       30.20S
BAUDETTE       CLEAR     37  30  75 SE3       30.21R
WASKISH        CLEAR     43  28  56 CALM      30.22S
CROOKSTON      CLEAR     43  28  56 SE9       30.20S
$$
  *****  WEATHER ACROSS CENTRAL AND WEST MINNESOTA  *****

CITY           SKY/WX    TMP DP  RH WIND       PRES   REMARKS
FOSSTON        CLEAR     45  25  45 SE6       30.22R
BEMIDJI        CLEAR     36  27  67 CALM      30.23S
PARK RAPIDS    CLEAR     42  30  62 CALM      30.23S
ELBOW LAKE     FAIR      53  31  43 E8        30.20S
WADENA         CLEAR     37  30  75 CALM      30.22F
DETROIT LAKES  CLEAR     46  36  66 CALM      30.23S
MOORHEAD       CLEAR     46  27  46 SE5       30.20S
FERGUS FALLS   CLEAR     52  30  43 E7        30.21F
MORRIS MN      CLEAR     45  30  57 E9        30.19S
STAPLES        CLEAR     39  30  70 CALM      30.23S
$$
  *****  WEATHER ELSEWHERE ACROSS MINNESOTA  *****

CITY           SKY/WX    TMP DP  RH WIND       PRES   REMARKS
DULUTH         CLEAR     40  28  62 CALM      30.25R
INTRNTL FALLS  CLEAR     31  27  85 CALM      30.22R
ELY            CLEAR     32  28  86 CALM      30.26R
CLOQUET        CLEAR     34  25  69 CALM      30.26R
WHEATON        CLEAR     39  27  60 SE8       30.21S
BRAINERD       CLEAR     37  27  67 NE5       30.24R
HIBBING        CLEAR     32  25  75 NW5       30.24S
ALEXANDRIA     CLEAR     50  26  39 SE7       30.22S
SAINT CLOUD    CLEAR     51  22  31 NE3       30.22S
MINNEAPOLIS    PTCLDY    56  31  38 NE8       30.20S
$$

  *****  WEATHER ACROSS SOUTH DAKOTA  *****

CITY           SKY/WX    TMP DP  RH WIND       PRES   REMARKS
SIOUX FALLS    PTCLDY    47  31  53 NE6       30.14F
BROOKINGS      PTCLDY    54  30  40 E8        30.16F
WATERTOWN      PTCLDY    54  29  38 E7        30.17S
HURON          CLEAR     50  31  48 SE8       30.13S
SISSETON         N/A     41  29  62 CALM      30.18S
ABERDEEN       PTCLDY    50  32  50 E6        30.15S
MITCHELL       CLEAR     46  37  71 E7        30.12F
PIERRE         CLOUDY    55  29  36 E8        30.08F
MOBRIDGE       CLOUDY    59  27  29 SE13      30.08F
RAPID CITY     MOCLDY    46  36  68 S6        30.07F
$$

  *****  SOME WEATHER IN NEARBY STATES *****

CITY           SKY/WX    TMP DP  RH WIND       PRES   REMARKS
GLASGOW MT     CLEAR     50  35  56 E12       29.87S
GREAT FALLS MT PTCLDY    50  27  40 SW12      29.79S
CHEYENNE WY    FOG       44  43  96 S6        30.07F VSB 1/4
SCOTTSBLUFF NE CLOUDY    49  42  77 SE8       30.09F
OMAHA NE       CLOUDY    60  57  89 N5        30.07S
DES MOINES IA  CLOUDY    63  61  93 N7        30.05F FOG
DAVENPORT IA   RAIN      61  59  93 SE9       30.13F FOG
CHICAGO IL     LGT RAIN  53  45  74 N8        30.18S
EAU CLAIRE WI  PTCLDY    48  34  58 NE6       30.21S
LA CROSSE WI   CLOUDY    55  46  71 N3        30.16F
$$

  *****  SOME NATIONAL WEATHER *****

CITY           SKY/WX    TMP DP  RH WIND       PRES   REMARKS
LA GUARDIA NY  PTCLDY    69  45  41 SW9G20    30.14F
RALEIGH NC     PTCLDY    61  54  77 SW3       30.33F
ATLANTA GA     CLEAR     64  53  67 SE3       30.28F
NEW ORLEANS LA CLEAR     70  61  73 E6        30.14F
OKLAHOMA CITY  MOCLDY    65  55  70 SE9       30.04S
ALBUQUERQUE NM CLOUDY    55  49  80 N6        29.98F
SALT LAKE CITY MOCLDY    60  44  55 SE7       29.88S
LOS ANGELES CA MOCLDY    57  52  82 SW3       30.01R
BOISE ID       MOCLDY    67  37  33 W9        29.77R
SEATTLE WA     MOCLDY    50  42  74 SW9       29.99R
$$

*** WEATHER ACROSS MANITOBA...SASKATCHEWAN AND ONTARIO ***
                ***ONTARIO***

CITY           SKY/WX    TMP DP  RH WIND       PRES   REMARKS
GERALDTON      PTCLDY    36  28  75 SW3       30.19S
THUNDER BAY    CLEAR     32  28  86 W5        30.25R
SIOUX LOOKOUT  CLEAR     34  32  93 S3        30.20S
TORONTO        PTCLDY    48  32  53 NW3       30.20R
BIG TROUT LK   CLEAR     30  23  74 W6        30.13R WCI  24
PICKLE LAKE    NOT AVBL
DRYDEN         CLEAR     45  34  65 S7        30.20S
KENORA         CLEAR     46  34  61 S6        30.19S
$$
                *** MANITOBA***

CITY           SKY/WX    TMP DP  RH WIND       PRES   REMARKS
BRANDON        CLEAR     45  30  57 S8        30.09S
DAUPHIN        MOCLDY    45  36  70 SE6       30.06F
ISLAND LAKE    MOCLDY    30  25  80 NE2       30.17R
PILOT MOUND      N/A     43  25  49 S12         N/A
THE PAS        PTCLDY    32  27  80 E3        30.14R
THOMPSON       CLEAR     23  19  86 NW2       30.16R
WINNIPEG       CLEAR     48  27  43 SE10      30.14S
LYNN LAKE      CLEAR     25  16  68 W7        30.15R WCI  17
CHURCHILL      PTCLDY    21  14  73 NW29G36   30.05R WCI   3
GILLAM         CLEAR     30  21  69 W8        30.11R WCI  23
$$
                ***SASKATCHEWAN***

CITY           SKY/WX    TMP DP  RH WIND       PRES   REMARKS
ESTEVAN        CLEAR     48  36  61 SE12      30.02F
KINDERSLEY     PTCLDY    46  36  66 E16       29.76S
LLOYDMINSTER   MOCLDY    43  30  61 E16G22    29.87F
PRINCE ALBERT  MOCLDY    46  34  61 E14G21    30.00R
REGINA         MOCLDY    54  39  58 SE21G31   29.91F
YORKTON        CLEAR     50  32  50 SE9G17    29.99F
N. BATTLEFORD  CLEAR     48  30  49 E25G37    29.88F
LA RONGE       MOCLDY    32  25  74 NE8       30.14R WCI  25
SASKATOON      PTCLDY    48  34  57 E15       29.89F
SWIFT CURRENT  PTCLDY    55  45  67 S15       29.79F
$$
NOTE: THESE ARE AUTOMATED STATIONS WITH LIMITED QUALITY CONTROL
      "FAIR" INDICATES FEW OR NO CLOUDS BELOW 12,000 FEET WITH NO
      SIGNIFICANT WEATHER AND/OR OBSTRUCTIONS TO VISIBILITY.
      SKY/WX - SKY CONDITION AND SIGNIFICANT WEATHER.
      TMP - AIR TEMPERATURE.    DP   - DEWPOINT TEMPERATURE.
      RH  - RELATIVE HUMIDITY.  PRES - PRESSURE.
      HX  - HEAT INDEX.         WCI  - WIND CHILL INDEX.
$



USA.gov is the U.S. government's official web portal to all federal, state and local government web resources and services.